Date_and_time,latitude,longitude,wind_speed,RelWindDirFrom,WindDirFrom,air_pressure,air_temperature,relative_humidity,Temp,platform_speed_wrt_ground,air_pressure_at_mean_sea_level,platform_orientation
2018-07-14 23:40,51.63933,-96.8027583333333,12.5,19.7,182,976.48,29.4,49,23.00,0.0,1001.22,360.0
2018-07-14 23:50,51.639335,-96.8027633333333,7.1,12.6,259,977.58,28.1,56,22.99,0.0,1002.40,360.0
2018-07-15 00:00,51.6393333333333,-96.8027566666667,6.4,17.5,253,978.22,24.9,78,22.99,0.0,1003.19,133.2
2018-07-15 00:10,51.6393383333333,-96.8027616666667,12.6,23.2,217,976.84,23.0,93,22.98,0.0,1001.87,133.2
2018-07-15 00:20,51.6393216666667,-96.8027583333333,5.2,9.1,268,976.27,22.4,100,22.94,0.0,1001.31,133.2
2018-07-15 00:30,51.6393116666667,-96.8027566666667,9.1,16.8,259,976.38,23.1,95,22.85,0.0,1001.42,133.2
2018-07-15 00:40,51.6393366666667,-96.802765,6.0,11.6,258,976.82,23.8,90,22.80,0.0,1001.86,133.2
2018-07-15 00:50,51.63934,-96.8027616666667,10.2,20.5,209,977.08,23.8,85,22.76,0.0,1002.14,133.2
2018-07-15 01:00,51.6393316666667,-96.80276,17.0,27.6,248,977.91,23.0,88,22.74,0.0,1003.03,360.0
2018-07-15 01:10,51.6393383333333,-96.802765,16.3,23.2,267,978.18,22.0,100,22.72,0.0,1003.34,360.0
2018-07-15 01:20,51.639325,-96.8027616666667,10.1,16.5,271,978.89,22.1,100,22.66,0.0,1004.09,360.0
2018-07-15 01:30,51.6393266666667,-96.80277,9.1,16.9,276,979.64,22.6,93,22.66,0.0,1004.85,360.0
2018-07-15 01:40,51.639335,-96.8027716666667,7.7,12.8,280,979.90,22.8,87,22.67,0.0,1005.16,360.0
2018-07-15 01:50,51.6393416666667,-96.8027416666667,6.4,13.8,295,980.42,22.5,88,22.65,0.0,1005.84,360.0
2018-07-15 02:00,51.6393466666667,-96.8027583333333,5.6,13.7,310,980.81,22.2,88,22.56,0.0,1006.33,360.0
2018-07-15 02:10,51.6393366666667,-96.8027666666667,6.0,14.2,326,981.13,21.8,89,22.43,0.0,1006.71,360.0
2018-07-15 02:20,51.639335,-96.8027533333333,6.5,15.7,317,981.52,21.4,89,22.38,0.0,1007.10,360.0
2018-07-15 02:30,51.6393383333333,-96.80276,5.6,14.1,317,981.97,21.1,90,22.36,0.0,1007.54,360.0
2018-07-15 02:40,51.6393316666667,-96.80276,7.1,17.9,315,982.36,20.9,88,22.35,0.0,1007.95,360.0
2018-07-15 02:50,51.6393416666667,-96.8027533333333,6.9,17.0,314,982.69,20.5,87,22.38,0.0,1008.35,360.0
2018-07-15 03:00,51.6393366666667,-96.8027716666667,5.7,13.0,319,983.10,20.3,87,22.52,0.0,1008.82,270.0
2018-07-15 03:10,51.6393383333333,-96.8027766666667,5.4,11.1,322,983.38,20.0,89,22.53,0.0,1009.11,270.0
2018-07-15 03:20,51.6393216666667,-96.8027483333333,6.5,13.4,323,983.50,19.8,87,22.56,0.0,1009.22,270.0
2018-07-15 03:30,51.639335,-96.8027433333333,5.9,13.3,318,983.69,19.7,84,22.57,0.0,1009.41,270.0
2018-07-15 03:40,51.6393333333333,-96.8027583333333,5.4,12.7,321,983.68,19.6,81,22.57,0.0,1009.42,270.0
2018-07-15 03:50,51.6393316666667,-96.8027483333333,7.3,16.1,315,983.79,19.5,75,22.57,0.0,1009.55,270.0
2018-07-15 04:00,51.6393233333333,-96.8027633333333,5.5,13.2,320,983.86,19.3,73,22.57,0.0,1009.64,360.0
2018-07-15 04:10,51.6393333333333,-96.8027466666667,5.7,12.8,317,984.04,19.2,71,22.58,0.0,1009.86,360.0
2018-07-15 04:20,51.6393316666667,-96.8027483333333,6.2,14.2,311,984.13,19.1,70,22.57,0.0,1009.96,360.0
2018-07-15 04:30,51.6393333333333,-96.8027666666667,5.0,10.5,302,984.29,18.9,69,22.54,0.0,1010.15,360.0
2018-07-15 04:40,51.639325,-96.8027566666667,5.4,9.7,299,984.41,18.7,68,22.54,0.0,1010.29,360.0
2018-07-15 04:50,51.63933,-96.8027533333333,4.7,9.5,301,984.49,18.6,66,22.55,0.0,1010.39,360.0
2018-07-15 05:00,51.6393316666667,-96.80275,4.4,8.5,286,984.58,18.4,67,22.54,0.0,1010.51,159.8
2018-07-15 05:10,51.6393316666667,-96.8027566666667,4.9,8.9,284,984.64,18.0,68,22.54,0.0,1010.59,159.8
2018-07-15 05:20,51.63933,-96.8027516666667,5.3,10.5,283,984.59,17.9,67,22.49,0.0,1010.55,159.8
2018-07-15 05:30,51.6393316666667,-96.802755,4.6,8.0,285,984.62,17.8,66,22.49,0.0,1010.59,159.8
2018-07-15 05:40,51.6393383333333,-96.8027766666667,4.7,9.7,290,984.65,17.8,65,22.51,0.0,1010.63,159.8
2018-07-15 05:50,51.63934,-96.8027633333333,4.3,7.3,287,984.68,17.7,65,22.51,0.0,1010.67,159.8
2018-07-15 06:00,51.639335,-96.80276,4.2,8.8,287,984.72,17.6,65,22.51,0.0,1010.72,90.0
2018-07-15 06:10,51.6393366666667,-96.8027583333333,3.9,7.9,284,984.73,17.6,64,22.49,0.0,1010.74,90.0
2018-07-15 06:20,51.6393383333333,-96.8027566666667,3.6,7.3,283,984.69,17.4,65,22.46,0.0,1010.72,90.0
2018-07-15 06:30,51.6393366666667,-96.802755,2.7,5.9,284,984.62,17.2,66,22.48,0.0,1010.66,90.0
2018-07-15 06:40,51.6393366666667,-96.8027566666667,2.9,5.4,280,984.63,17.0,68,22.48,0.0,1010.69,90.0
2018-07-15 06:50,51.6393366666667,-96.802755,2.7,4.2,268,984.68,16.8,70,22.47,0.0,1010.76,90.0
2018-07-15 07:00,51.6393366666667,-96.802755,2.4,3.2,252,984.62,16.6,77,22.45,0.0,1010.72,7.0
2018-07-15 07:10,51.639335,-96.8027566666667,2.3,3.3,255,984.62,16.3,80,22.42,0.0,1010.74,7.0
2018-07-15 07:20,51.639335,-96.802755,1.8,3.4,245,984.63,16.1,83,22.44,0.0,1010.76,7.0
2018-07-15 07:30,51.639335,-96.802755,2.6,4.2,243,984.62,15.9,86,22.43,0.0,1010.76,7.0
2018-07-15 07:40,51.6393333333333,-96.802755,2.9,5.0,236,984.63,15.7,88,22.41,0.0,1010.78,7.0
2018-07-15 07:50,51.639335,-96.802755,3.8,5.0,239,984.65,15.5,90,22.38,0.0,1010.82,7.0
2018-07-15 08:00,51.639335,-96.802755,5.9,8.0,243,984.69,15.4,88,22.35,0.0,1010.86,270.0
2018-07-15 08:10,51.639335,-96.802755,6.0,7.9,242,984.69,15.2,89,22.38,0.0,1010.88,270.0
2018-07-15 08:20,51.639335,-96.802755,5.6,7.1,243,984.67,15.2,89,22.37,0.0,1010.88,270.0
2018-07-15 08:30,51.63934,-96.8026983333333,5.6,7.1,245,984.69,15.0,88,22.32,0.0,1010.91,270.0
2018-07-15 08:40,51.63933,-96.8027416666667,6.0,7.8,245,984.70,14.9,88,22.29,0.0,1010.94,270.0
2018-07-15 08:50,51.6393416666667,-96.8027533333333,6.5,8.1,246,984.72,15.1,85,22.27,0.0,1010.95,270.0
2018-07-15 09:00,51.6393433333333,-96.802745,7.2,8.9,245,984.77,15.2,84,22.26,0.0,1011.01,360.0
2018-07-15 09:10,51.63934,-96.8027466666667,6.6,8.9,243,984.78,15.1,84,22.26,0.0,1011.04,360.0
2018-07-15 09:20,51.6393383333333,-96.8027466666667,6.0,7.5,245,984.72,15.1,83,22.27,0.0,1010.98,360.0
2018-07-15 09:30,51.6393366666667,-96.8027483333333,5.5,7.0,243,984.76,15.2,83,22.22,0.0,1011.03,360.0
2018-07-15 09:40,51.6393366666667,-96.8027466666667,5.3,7.3,233,984.80,15.0,85,22.20,0.0,1011.09,360.0
2018-07-15 09:50,51.6393366666667,-96.8027483333333,5.9,8.5,239,984.82,14.7,86,22.20,0.0,1011.14,360.0
2018-07-15 10:00,51.6393416666667,-96.80275,6.9,8.5,248,984.83,14.8,81,22.21,0.0,1011.14,360.0
2018-07-15 10:10,51.63933,-96.8027266666667,7.0,9.0,245,984.93,14.5,82,22.22,0.0,1011.26,360.0
2018-07-15 10:20,51.6393366666667,-96.8027433333333,7.2,10.0,244,985.00,14.5,81,22.19,0.0,1011.34,360.0
2018-07-15 10:30,51.63934,-96.8027483333333,8.3,11.5,249,985.02,14.8,76,22.15,0.0,1011.36,360.0
2018-07-15 10:40,51.63934,-96.80275,8.0,11.6,250,985.04,15.3,72,22.13,0.0,1011.35,360.0
2018-07-15 10:50,51.639345,-96.802745,7.8,11.2,250,985.05,15.5,72,22.10,0.0,1011.35,360.0
2018-07-15 11:00,51.639355,-96.8027516666667,7.4,9.7,245,985.01,15.3,73,22.08,0.0,1011.31,360.0
2018-07-15 11:10,51.639355,-96.8027516666667,6.8,8.9,247,984.96,15.2,73,22.07,0.0,1011.26,360.0
2018-07-15 11:20,51.639355,-96.8027533333333,6.9,9.0,246,984.87,15.5,71,22.04,0.0,1011.16,360.0
2018-07-15 11:30,51.6393316666667,-96.8027433333333,7.9,11.7,244,984.80,15.7,69,22.01,0.0,1011.08,360.0
2018-07-15 11:40,51.6393366666667,-96.8027433333333,9.8,14.2,251,984.76,16.0,66,22.00,0.0,1011.04,360.0
2018-07-15 11:50,51.6393383333333,-96.8027466666667,10.9,15.0,252,984.72,16.2,65,21.99,0.0,1010.98,360.0
2018-07-15 12:00,51.63934,-96.8027483333333,10.3,15.2,255,984.62,16.3,65,21.96,0.0,1010.89,360.0
2018-07-15 12:10,51.6392733333333,-96.8005266666667,9.2,14.5,256,984.52,16.3,65,21.95,0.5,1010.79,360.0
2018-07-15 12:20,51.6584616666667,-96.7766783333333,7.1,16.7,325,984.44,16.7,63,21.73,8.7,1010.67,360.0
2018-07-15 12:30,51.6865733333333,-96.7812116666667,19.4,26.6,300,983.60,17.1,60,21.63,10.2,1009.77,360.0
2018-07-15 12:40,51.7135233333333,-96.7995216666667,21.2,26.0,290,983.44,17.3,60,21.62,10.5,1009.58,360.0
2018-07-15 12:50,51.739945,-96.8183633333333,21.0,24.9,287,983.38,17.4,59,21.59,10.4,1009.53,360.0
2018-07-15 13:00,51.751305,-96.8297833333333,23.5,27.7,269,983.10,17.5,61,21.64,4.8,1009.25,351.5
2018-07-15 13:10,51.7418083333333,-96.8216916666667,19.0,25.4,246,983.39,17.7,63,21.75,3.9,1009.51,351.5
2018-07-15 13:20,51.713405,-96.7966533333333,19.3,24.3,216,983.60,17.8,62,21.59,11.7,1009.73,351.5
2018-07-15 13:30,51.6850416666667,-96.7723216666667,20.2,24.1,223,983.59,17.6,65,21.68,11.6,1009.70,351.5
2018-07-15 13:40,51.65618,-96.77334,21.3,26.4,233,983.37,17.4,64,21.63,10.4,1009.48,351.5
2018-07-15 13:50,51.6373616666667,-96.79988,19.7,27.5,247,983.26,17.2,63,21.57,9.0,1009.37,351.5
2018-07-15 14:00,51.6393283333333,-96.802755,11.2,17.1,251,983.83,16.9,64,21.67,1.0,1009.97,185.6
2018-07-15 14:10,51.6393283333333,-96.8027566666667,12.2,19.3,253,983.83,17.1,61,21.71,0.0,1009.95,185.6
2018-07-15 14:20,51.639325,-96.8027583333333,12.0,18.4,250,983.74,17.2,59,21.72,0.0,1009.82,185.6
2018-07-15 14:30,51.639325,-96.80276,12.7,17.9,251,983.65,17.3,57,21.74,0.0,1009.72,185.6
2018-07-15 14:40,51.6393233333333,-96.80276,12.4,20.1,251,983.67,17.3,59,21.74,0.0,1009.74,185.6
2018-07-15 14:50,51.6393216666667,-96.8027616666667,14.2,20.6,247,983.65,17.4,59,21.72,0.0,1009.71,185.6
2018-07-15 15:00,51.6393233333333,-96.80277,12.7,18.3,239,983.60,17.4,59,21.71,0.0,1009.65,207.8
2018-07-15 15:10,51.6393183333333,-96.8027533333333,14.8,20.6,244,983.63,17.4,58,21.71,0.0,1009.68,207.8
2018-07-15 15:20,51.639325,-96.8027633333333,13.4,18.0,245,983.58,17.6,57,21.71,0.0,1009.62,207.8
2018-07-15 15:30,51.6393266666667,-96.8027583333333,13.6,21.7,237,983.42,17.8,56,21.71,0.0,1009.46,207.8
2018-07-15 15:40,51.6393233333333,-96.8027616666667,15.7,22.8,239,983.32,17.9,54,21.72,0.0,1009.35,207.8
2018-07-15 15:50,51.6393233333333,-96.8027616666667,14.8,22.1,244,983.32,18.1,54,21.72,0.0,1009.37,207.8
2018-07-15 16:00,51.6393216666667,-96.8027616666667,15.6,23.9,247,983.23,18.3,52,21.74,0.0,1009.26,171.5
2018-07-15 16:10,51.63932,-96.80276,15.3,22.1,252,983.12,18.6,51,21.75,0.0,1009.12,171.5
2018-07-15 16:20,51.63932,-96.80276,15.7,22.6,241,982.95,18.7,51,21.76,0.0,1008.94,171.5
2018-07-15 16:30,51.63932,-96.80276,14.1,21.7,230,982.85,19.0,51,21.76,0.0,1008.83,171.5
2018-07-15 16:40,51.63932,-96.80276,12.8,20.6,231,982.76,19.3,50,21.77,0.0,1008.72,171.5
2018-07-15 16:50,51.63932,-96.8027583333333,15.3,24.3,238,982.62,19.4,49,21.79,0.0,1008.57,171.5
2018-07-15 17:00,51.63932,-96.8027583333333,14.1,19.7,236,982.54,19.6,48,21.79,0.0,1008.47,143.7
2018-07-15 17:10,51.63932,-96.8027583333333,16.3,24.7,232,982.35,19.8,47,21.81,0.0,1008.27,143.7
2018-07-15 17:20,51.63932,-96.8027583333333,14.0,21.1,232,982.12,20.0,47,21.82,0.0,1008.01,143.7
2018-07-15 17:30,51.6393233333333,-96.8027683333333,12.5,20.4,237,982.04,20.3,47,21.81,0.0,1007.90,143.7
2018-07-15 17:40,51.6393116666667,-96.802755,18.0,26.5,230,981.89,20.6,44,21.83,0.0,1007.73,143.7
2018-07-15 17:50,51.639325,-96.802745,17.8,24.4,237,981.94,20.7,44,21.84,0.0,1007.77,143.7
2018-07-15 18:00,51.6393266666667,-96.8027566666667,15.4,23.2,238,981.89,20.8,46,21.86,0.0,1007.69,53.0
2018-07-15 18:10,51.6393216666667,-96.8027583333333,18.5,25.4,243,981.96,21.0,44,21.87,0.0,1007.76,53.0
2018-07-15 18:20,51.6393233333333,-96.80277,18.7,27.8,240,981.87,21.0,44,21.87,0.0,1007.66,53.0
2018-07-15 18:30,51.6393216666667,-96.8027683333333,18.2,31.0,240,981.75,21.2,43,21.88,0.0,1007.51,53.0
2018-07-15 18:40,51.6393316666667,-96.8027516666667,14.5,22.8,245,981.64,21.2,44,21.88,0.0,1007.39,53.0
2018-07-15 18:50,51.6393366666667,-96.8027733333333,16.7,23.4,247,981.43,21.6,41,21.88,0.0,1007.15,53.0
2018-07-15 19:00,51.639345,-96.8027966666667,16.9,26.3,246,981.36,21.7,41,21.90,0.0,1007.07,318.3
2018-07-15 19:10,51.6393216666667,-96.8027633333333,16.7,31.7,251,981.52,21.5,42,21.92,0.0,1007.23,318.3
2018-07-15 19:20,51.63931,-96.8027566666667,19.3,29.0,248,981.41,21.6,39,21.93,0.0,1007.10,318.3
2018-07-15 19:30,51.6393283333333,-96.80276,16.7,25.5,241,981.24,21.6,39,21.93,0.0,1006.91,318.3
2018-07-15 19:40,51.6393216666667,-96.8027733333333,17.0,22.5,238,981.13,21.7,40,21.92,0.0,1006.78,318.3
2018-07-15 19:50,51.6393233333333,-96.8027833333333,17.5,25.6,238,980.95,22.1,38,21.92,0.0,1006.58,318.3
2018-07-15 20:00,51.6393266666667,-96.8027766666667,15.4,26.6,241,980.97,22.2,39,21.93,0.0,1006.59,287.5
2018-07-15 20:10,51.63933,-96.8027583333333,14.2,24.3,243,980.94,22.2,39,21.93,0.0,1006.55,287.5
2018-07-15 20:20,51.6393283333333,-96.8027566666667,17.3,26.0,239,980.84,22.4,38,21.94,0.0,1006.44,287.5
2018-07-15 20:30,51.63932,-96.8027533333333,18.5,28.1,236,980.75,22.3,39,21.94,0.0,1006.35,287.5
2018-07-15 20:40,51.6393233333333,-96.802765,16.8,28.4,239,980.80,21.9,41,21.91,0.0,1006.40,287.5
2018-07-15 20:50,51.6393216666667,-96.8027683333333,20.0,27.8,234,980.64,22.0,41,21.89,0.0,1006.23,287.5
2018-07-15 21:00,51.639315,-96.8027733333333,14.9,23.4,243,980.75,21.8,42,21.89,0.0,1006.36,214.1
2018-07-15 21:10,51.639315,-96.80277,14.6,22.0,241,980.62,22.1,41,21.88,0.0,1006.21,214.1
2018-07-15 21:20,51.63933,-96.8028016666667,16.1,24.1,244,980.39,22.5,40,21.88,0.0,1005.95,214.1
2018-07-15 21:30,51.6393333333333,-96.8027733333333,16.2,25.4,240,980.18,22.6,38,21.89,0.0,1005.73,214.1
2018-07-15 21:40,51.6393266666667,-96.8027633333333,15.1,24.2,243,980.20,22.7,38,21.89,0.0,1005.73,214.1
2018-07-15 21:50,51.63932,-96.802775,17.9,29.3,240,980.17,22.7,37,21.86,0.0,1005.69,214.1
2018-07-15 22:00,51.63931,-96.8027733333333,18.2,29.3,253,980.21,23.0,35,21.86,0.0,1005.72,360.0
2018-07-15 22:10,51.639325,-96.8027533333333,17.4,27.9,267,980.31,22.8,36,21.86,0.0,1005.82,360.0
2018-07-15 22:20,51.6393133333333,-96.8027816666667,11.7,20.1,273,980.45,22.5,38,21.84,0.0,1005.98,360.0
2018-07-15 22:30,51.6393166666667,-96.8027883333333,8.9,18.8,321,980.99,19.1,64,21.83,0.0,1006.71,360.0
2018-07-15 22:40,51.639325,-96.8027566666667,9.7,19.9,313,981.56,17.4,70,21.82,0.0,1007.36,360.0
2018-07-15 22:50,51.639325,-96.8027616666667,8.0,19.5,313,981.45,16.8,70,21.80,0.0,1007.29,360.0
2018-07-15 23:00,51.639325,-96.8027516666667,6.1,12.8,303,981.52,16.4,72,21.79,0.0,1007.36,104.9
2018-07-15 23:10,51.6393216666667,-96.8027516666667,7.8,13.7,289,981.98,16.4,72,21.80,0.0,1007.82,104.9
2018-07-15 23:20,51.639325,-96.8027566666667,6.9,13.9,289,981.71,15.9,75,21.78,0.0,1007.56,104.9
2018-07-15 23:30,51.639315,-96.80277,7.1,16.5,282,981.85,15.8,75,21.76,0.0,1007.70,104.9
2018-07-15 23:40,51.6393216666667,-96.8027616666667,8.1,14.5,275,981.91,15.6,78,21.76,0.0,1007.77,104.9
